Simultaneous Nadir Overpasses (SNOs) Predictions

Prediction of SNOs between FY3D and NOAA-19 Satellite Orbit:

Table of predicted SNOs for the next 14.0 days since TLE Epoch: 4/23/2022
Index Date (FY3D) Time (FY3D) Lat,Lon (FY3D) SZA (FY3D ) Date (NOAA-19) Time (NOAA-19) Lat,Lon (NOAA-19) SZA (NOAA-19 ) Distance(km) Time Diff (sec)
1 05/02/2022 18:55:57 -77.58, 58.52 117.47 05/02/2022 18:54:42 -77.59, 58.38 117.42 3.57 75
2 05/02/2022 19:46:43 77.60,-134.27 62.55 05/02/2022 19:45:38 77.59,-134.38 62.57 3.11 65
3 05/02/2022 20:37:29 -77.61, 33.02 117.46 05/02/2022 20:36:41 -77.63, 33.08 117.42 3.16 48
4 05/02/2022 21:28:15 77.63,-159.77 62.56 05/02/2022 21:27:37 77.63,-159.68 62.57 2.20 38
5 05/02/2022 22:19:01 -77.63, 7.52 117.45 05/02/2022 22:18:41 -77.63, 7.58 117.44 1.38 20
6 05/02/2022 23:09:46 77.61, 174.93 62.52 05/02/2022 23:09:37 77.63, 174.82 62.55 3.12 9
7 05/03/2022 00:00:33 -77.66, -17.98 117.43 05/03/2022 00:00:41 -77.63, -17.93 117.47 3.20 8
8 05/03/2022 00:51:18 77.63, 149.43 62.53 05/03/2022 00:51:37 77.63, 149.32 62.53 2.74 19
9 05/03/2022 01:42:04 -77.64, -43.28 117.48 05/03/2022 01:42:40 -77.67, -43.22 117.46 3.47 36
10 05/03/2022 02:32:50 77.66, 123.93 62.54 05/03/2022 02:33:36 77.66, 124.03 62.53 2.44 46
11 05/03/2022 03:23:36 -77.66, -68.78 117.47 05/03/2022 03:24:40 -77.67, -68.73 117.49 1.35 64
12 05/03/2022 04:14:21 77.64, 98.63 62.50 05/03/2022 04:15:36 77.66, 98.53 62.51 3.30 75



Historial Predications of SNOs between FY3D and NOAA-19
